Location: Audinghen
(50.8518°N, 1.6129°E)
Time: 10:42:31
(UTC+00:00)

COSMOS 2428 - Pass Details

Date: 07 August 2020
Orbit: 844 x 859 km, 70.9° (Epoch: 20 September)

Event Time Altitude Azimuth Distance (km) Brightness Sun altitude
Rises 02:04:22 0° 317° (NW) 3,435 6.1 -17.5°
Reaches altitude 10° 02:07:58 10° 294° (WNW) 2,495 5.1 -17.2°
Maximum altitude 02:10:54 14° 263° (W) 2,190 4.5 -16.9°
Enters shadow 02:11:10 14° 260° (W) 2,192 4.5 -16.9°
